Weather History for Lone Rock, WI

Change the Weather History Date:

Saturday, July 13, 2013

  Actual Average Record
Temperature  
Mean Temperature 72 °F -  
Max Temperature 84 °F 80 °F 91 °F (2005)
Min Temperature 60 °F 59 °F 50 °F (2001)
Cooling Degree Days 7    
Growing Degree Days 22 (Base 50)    
Moisture  
Dew Point 61 °F    
Average Humidity 72    
Maximum Humidity 90    
Minimum Humidity 49    
Precipitation  
Precipitation 0.00 in - - ()
Sea Level Pressure  
Sea Level Pressure 30.10 in    
Wind  
Wind Speed 3 mph (ESE)    
Max Wind Speed 9 mph    
Max Gust Speed -    
Visibility 9 miles    
Events      
Averages and records for this station are not official NWS values.
T = Trace of Precipitation, MM = Missing Value Source: NWS Daily Summary

Daily Weather History Graph

Daily Weather History Graph

Search for Another Location

Airport:

Trip Planner

Search our weather history database for the weather conditions in past years. The results will help you decide how hot, cold, wet, or windy it might be!

Date:

Astronomy

Jul. 13, 2013 Rise Set
Actual Time 5:33 AM CDT 8:39 PM CDT
Civil Twilight 4:58 AM CDT 9:13 PM CDT
Nautical Twilight 4:14 AM CDT 9:57 PM CDT
Astronomical Twilight 3:21 AM CDT 10:50 PM CDT
Moon 10:59 AM CDT (7/13) 11:09 PM CDT (7/13)
Length of Visible Light 16h 15m
Length of Day
15h 06m
Waxing Crescent, 26% of the Moon is Illuminated
Jul 13
Waxing Crescent
Jul 15
First Quarter
Jul 22
Full
Jul 29
Last Quarter
Aug 6
New

Hourly Weather History & Observations

Time (CDT) Temp. Heat Index Dew Point Humidity Pressure Visibility Wind Dir Wind Speed Gust Speed Precip Events Conditions
12:56 AM 62.1 °F - 59.0 °F 90% 30.07 in 10.0 mi Calm Calm - N/A   Clear
1:56 AM 61.0 °F - 57.9 °F 90% 30.08 in 8.0 mi ESE 3.5 mph - N/A   Clear
2:56 AM 62.1 °F - 59.0 °F 90% 30.06 in 8.0 mi East 6.9 mph - N/A   Clear
3:56 AM 62.1 °F - 57.9 °F 86% 30.08 in 8.0 mi Calm Calm - N/A   Clear
4:56 AM 62.1 °F - 57.9 °F 86% 30.06 in 8.0 mi East 5.8 mph - N/A   Clear
5:56 AM 60.1 °F - 57.0 °F 90% 30.10 in 9.0 mi Calm Calm - N/A   Clear
6:56 AM 63.0 °F - 57.9 °F 84% 30.09 in 8.0 mi ESE 6.9 mph - N/A   Clear
7:56 AM 64.9 °F - 59.0 °F 81% 30.12 in 9.0 mi East 4.6 mph - N/A   Clear
8:56 AM 66.9 °F - 59.0 °F 76% 30.13 in 10.0 mi East 4.6 mph - N/A   Clear
9:56 AM 70.0 °F - 57.9 °F 65% 30.14 in 10.0 mi Calm Calm - N/A   Clear
10:56 AM 73.0 °F - 59.0 °F 61% 30.14 in 10.0 mi Variable 3.5 mph - N/A   Clear
11:56 AM 77.0 °F - 62.1 °F 60% 30.14 in 10.0 mi SW 3.5 mph - N/A   Clear
12:56 PM 79.0 °F - 62.1 °F 56% 30.12 in 10.0 mi SW 9.2 mph - N/A   Clear
1:56 PM 81.0 °F 81.9 °F 62.1 °F 52% 30.12 in 10.0 mi Variable 6.9 mph - N/A   Clear
2:56 PM 81.0 °F 81.9 °F 62.1 °F 52% 30.11 in 10.0 mi Calm Calm - N/A   Clear
3:56 PM 82.9 °F 83.7 °F 62.1 °F 49% 30.09 in 10.0 mi East 4.6 mph - N/A   Clear
4:56 PM 82.9 °F 84.0 °F 63.0 °F 51% 30.09 in 10.0 mi SSW 4.6 mph - N/A   Clear
5:56 PM 84.0 °F 84.9 °F 63.0 °F 49% 30.08 in 10.0 mi SSE 5.8 mph - N/A   Clear
6:56 PM 81.0 °F 81.9 °F 62.1 °F 52% 30.08 in 10.0 mi SE 6.9 mph - N/A   Clear
7:56 PM 75.0 °F - 64.9 °F 71% 30.08 in 10.0 mi East 3.5 mph - N/A   Clear
8:56 PM 70.0 °F - 64.0 °F 81% 30.09 in 10.0 mi Calm Calm - N/A   Clear
9:56 PM 66.9 °F - 63.0 °F 87% 30.11 in 9.0 mi East 3.5 mph - N/A   Clear
10:56 PM 64.9 °F - 61.0 °F 87% 30.12 in 9.0 mi East 4.6 mph - N/A   Clear
11:56 PM 66.0 °F - 60.1 °F 81% 30.13 in 10.0 mi Calm Calm - N/A   Clear